Starlink 30160

operational
NORAD ID: 57441 Int'l Des: 2023-105 Owner: SPXS Country: US Constellation: starlink
LEOCIRCULAR

Über Starlink 30160

Beschreibung wird geladen...

Live-Position

3D-Globus wird geladen...

Nächste Überflüge

Höhenverlauf

Altitude vs Time

uPlot chart will show altitude changes over time

Zweizeiliger Elementsatz

1 57441U 23105M 25304.15139237 .00001205 00000-0 10423-3 0 9998
2 57441 43.0028 245.6091 0001179 281.7656 78.3054 15.02543577125914
Epoch: 31. Okt. 2025 • Age: 16 hours

Aktueller Status

Höhe 563.0 km
Geschwindigkeit 7.59 km/s
Subsatellitenpunkt 43.01°N, 13.83°W
Startdatum 24. Juli 2023
Alter 2.2 years
Typ internet

Technische Details

Klassifizierung Payload
Masse 730.00 kg
Trockenmasse 700.00 kg
Gesamtmasse 730.00 kg
Länge 0.30 m
Durchmesser 4.10 m
Spannweite 29.00 m
Form Box + pan
Hersteller SPXS
Bus-Typ Starlink V2M
Phasenstatus In Orbit
Besitzer/Staat SPXS/US

Große Konstellationen

Loading constellations...